Time,TemperatureF,DewpointF,PressureIn,WindDirection,WindDirectionDegrees,WindSpeedMPH,WindSpeedGustMPH,Humidity,HourlyPrecipIn,Conditions,Clouds,dailyrainin,SoftwareType,DateUTC
2013-04-28 00:02:00,43.0,27.0,29.67,West,263,2.0,4.0,53,0.00,,,0.00,,2013-04-27 23:02:00,
2013-04-28 00:11:00,43.0,27.0,29.67,West,263,2.0,4.0,53,0.00,,,0.00,,2013-04-27 23:11:00,
2013-04-28 00:22:00,43.0,27.0,29.67,WNW,285,4.0,6.0,53,0.00,,,0.00,,2013-04-27 23:22:00,
2013-04-28 00:32:00,43.0,28.0,29.67,SW,225,3.0,8.0,56,0.00,,,0.00,,2013-04-27 23:32:00,
2013-04-28 00:42:00,43.0,28.0,29.67,SW,225,3.0,8.0,56,0.00,,,0.00,,2013-04-27 23:42:00,
2013-04-28 00:52:00,43.0,29.0,29.67,WNW,286,3.0,5.0,57,0.00,,,0.00,,2013-04-27 23:52:00,
2013-04-28 01:01:00,43.0,30.0,29.65,WSW,258,3.0,5.0,60,0.00,,,0.00,,2013-04-28 00:01:00,
2013-04-28 01:11:00,43.0,30.0,29.65,WSW,258,3.0,5.0,60,0.00,,,0.00,,2013-04-28 00:11:00,
2013-04-28 01:21:00,43.0,30.0,29.64,NW,314,3.0,6.0,61,0.00,,,0.00,,2013-04-28 00:21:00,
2013-04-28 01:31:00,43.0,31.0,29.62,NW,305,4.0,7.0,62,0.00,,,0.00,,2013-04-28 00:31:00,
2013-04-28 01:42:00,43.0,31.0,29.62,NW,305,4.0,7.0,62,0.00,,,0.00,,2013-04-28 00:42:00,
2013-04-28 01:52:00,43.0,31.0,29.61,West,271,4.0,6.0,62,0.00,,,0.00,,2013-04-28 00:52:00,
2013-04-28 02:01:00,43.0,31.0,29.59,NW,318,2.0,4.0,63,0.00,,,0.00,,2013-04-28 01:01:00,
2013-04-28 02:11:00,43.0,31.0,29.59,NW,318,2.0,4.0,63,0.00,,,0.00,,2013-04-28 01:11:00,
2013-04-28 02:21:00,43.0,31.0,29.58,NNW,341,5.0,10.0,62,0.00,,,0.00,,2013-04-28 01:21:00,
2013-04-28 02:31:00,43.0,30.0,29.56,West,270,3.0,6.0,61,0.00,,,0.00,,2013-04-28 01:31:00,
2013-04-28 02:41:00,43.0,30.0,29.56,West,270,3.0,6.0,61,0.00,,,0.00,,2013-04-28 01:41:00,
2013-04-28 02:52:00,43.0,30.0,29.56,SSE,147,4.0,8.0,61,0.00,,,0.00,,2013-04-28 01:52:00,
2013-04-28 03:01:00,42.0,31.0,29.53,WNW,297,7.0,9.0,64,0.00,,,0.00,,2013-04-28 02:01:00,
2013-04-28 03:11:00,42.0,31.0,29.53,WNW,297,7.0,9.0,64,0.00,,,0.00,,2013-04-28 02:11:00,
2013-04-28 03:21:00,42.0,32.0,29.53,North,0,7.0,9.0,68,0.00,,,0.00,,2013-04-28 02:21:00,
2013-04-28 03:31:00,42.0,33.0,29.53,WNW,284,3.0,6.0,71,0.00,,,0.00,,2013-04-28 02:31:00,
2013-04-28 03:41:00,42.0,33.0,29.53,WNW,284,3.0,6.0,71,0.00,,,0.00,,2013-04-28 02:41:00,
2013-04-28 03:52:00,42.0,34.0,29.53,West,276,5.0,7.0,74,0.00,,,0.00,,2013-04-28 02:52:00,
2013-04-28 04:01:00,42.0,34.0,29.50,WNW,298,7.0,10.0,74,0.00,,,0.00,,2013-04-28 03:01:00,
2013-04-28 04:11:00,42.0,34.0,29.50,WNW,298,7.0,10.0,74,0.00,,,0.00,,2013-04-28 03:11:00,
2013-04-28 04:21:00,42.0,35.0,29.50,West,281,2.0,4.0,75,0.00,,,0.00,,2013-04-28 03:21:00,
2013-04-28 04:32:00,42.0,35.0,29.50,NW,308,6.0,12.0,77,0.00,,,0.00,,2013-04-28 03:32:00,
2013-04-28 04:42:00,42.0,35.0,29.50,NW,308,6.0,12.0,77,0.00,,,0.00,,2013-04-28 03:42:00,
2013-04-28 04:53:00,41.0,35.0,29.49,West,272,4.0,6.0,78,0.00,,,0.00,,2013-04-28 03:53:00,
2013-04-28 05:02:00,41.0,35.0,29.47,West,269,5.0,10.0,79,0.00,,,0.00,,2013-04-28 04:02:00,
2013-04-28 05:13:00,41.0,35.0,29.47,West,269,5.0,10.0,79,0.00,,,0.00,,2013-04-28 04:13:00,
2013-04-28 05:22:00,41.0,35.0,29.47,WNW,291,4.0,5.0,80,0.00,,,0.00,,2013-04-28 04:22:00,
2013-04-28 05:32:00,41.0,36.0,29.44,WNW,293,4.0,7.0,81,0.00,,,0.00,,2013-04-28 04:32:00,
2013-04-28 05:42:00,41.0,36.0,29.44,WNW,293,4.0,7.0,81,0.00,,,0.00,,2013-04-28 04:42:00,
2013-04-28 05:52:00,41.0,36.0,29.44,WNW,297,3.0,4.0,83,0.00,,,0.00,,2013-04-28 04:52:00,
2013-04-28 06:02:00,42.0,37.0,29.44,WNW,283,4.0,10.0,83,0.00,,,0.00,,2013-04-28 05:02:00,
2013-04-28 06:12:00,42.0,37.0,29.44,WNW,283,4.0,10.0,83,0.00,,,0.00,,2013-04-28 05:12:00,
2013-04-28 06:22:00,42.0,37.0,29.44,WNW,291,4.0,7.0,83,0.00,,,0.00,,2013-04-28 05:22:00,
2013-04-28 06:32:00,42.0,38.0,29.44,WNW,294,4.0,6.0,84,0.00,,,0.00,,2013-04-28 05:32:00,
2013-04-28 06:42:00,42.0,38.0,29.44,WNW,294,4.0,6.0,84,0.00,,,0.00,,2013-04-28 05:42:00,
2013-04-28 06:52:00,43.0,38.0,29.44,WNW,300,6.0,8.0,84,0.00,,,0.00,,2013-04-28 05:52:00,
2013-04-28 07:01:00,43.0,39.0,29.44,West,268,4.0,7.0,86,0.00,,,0.00,,2013-04-28 06:01:00,
2013-04-28 07:12:00,43.0,39.0,29.44,West,268,4.0,7.0,86,0.00,,,0.00,,2013-04-28 06:12:00,
2013-04-28 07:21:00,43.0,39.0,29.44,NW,309,4.0,6.0,86,0.00,,,0.00,,2013-04-28 06:21:00,
2013-04-28 07:32:00,44.0,41.0,29.44,West,260,4.0,6.0,88,0.00,,,0.00,,2013-04-28 06:32:00,
2013-04-28 07:42:00,44.0,41.0,29.44,West,260,4.0,6.0,88,0.00,,,0.00,,2013-04-28 06:42:00,
2013-04-28 07:51:00,44.0,40.0,29.44,West,278,5.0,9.0,87,0.00,,,0.00,,2013-04-28 06:51:00,
2013-04-28 08:01:00,44.0,40.0,29.41,West,276,5.0,9.0,87,0.00,,,0.00,,2013-04-28 07:01:00,
2013-04-28 08:11:00,44.0,40.0,29.41,West,276,5.0,9.0,87,0.00,,,0.00,,2013-04-28 07:11:00,
2013-04-28 08:21:00,44.0,40.0,29.41,WSW,250,2.0,3.0,87,0.00,,,0.00,,2013-04-28 07:21:00,
2013-04-28 08:31:00,45.0,41.0,29.41,South,175,4.0,6.0,86,0.00,,,0.00,,2013-04-28 07:31:00,
2013-04-28 08:42:00,45.0,41.0,29.41,South,175,4.0,6.0,86,0.00,,,0.00,,2013-04-28 07:42:00,
2013-04-28 08:52:00,45.0,40.0,29.41,WSW,237,4.0,6.0,84,0.00,,,0.00,,2013-04-28 07:52:00,
2013-04-28 09:01:00,46.0,41.0,29.41,NW,308,5.0,8.0,82,0.00,,,0.00,,2013-04-28 08:01:00,
2013-04-28 09:11:00,46.0,41.0,29.41,NW,308,5.0,8.0,82,0.00,,,0.00,,2013-04-28 08:11:00,
2013-04-28 09:21:00,46.0,41.0,29.41,WSW,246,1.0,3.0,83,0.00,,,0.00,,2013-04-28 08:21:00,
2013-04-28 09:32:00,45.0,40.0,29.41,WSW,256,5.0,8.0,82,0.00,,,0.00,,2013-04-28 08:32:00,
2013-04-28 09:42:00,45.0,40.0,29.41,WSW,256,5.0,8.0,82,0.00,,,0.00,,2013-04-28 08:42:00,
2013-04-28 09:51:00,46.0,41.0,29.41,WNW,292,2.0,3.0,83,0.00,,,0.00,,2013-04-28 08:51:00,
2013-04-28 10:01:00,47.0,41.0,29.44,West,280,5.0,10.0,79,0.00,,,0.00,,2013-04-28 09:01:00,
2013-04-28 10:11:00,47.0,41.0,29.44,West,280,5.0,10.0,79,0.00,,,0.00,,2013-04-28 09:11:00,
2013-04-28 10:21:00,47.0,41.0,29.44,West,278,2.0,8.0,80,0.00,,,0.00,,2013-04-28 09:21:00,
2013-04-28 10:32:00,46.0,41.0,29.44,SW,214,2.0,4.0,84,0.00,,,0.00,,2013-04-28 09:32:00,
2013-04-28 10:42:00,46.0,41.0,29.44,SW,214,2.0,4.0,84,0.00,,,0.00,,2013-04-28 09:42:00,
2013-04-28 10:53:00,46.0,40.0,29.44,West,262,4.0,8.0,79,0.00,,,0.00,,2013-04-28 09:53:00,
2013-04-28 11:02:00,48.0,40.0,29.44,SE,141,3.0,8.0,74,0.00,,,0.00,,2013-04-28 10:02:00,
2013-04-28 11:12:00,48.0,40.0,29.44,SE,141,3.0,8.0,74,0.00,,,0.00,,2013-04-28 10:12:00,
2013-04-28 11:22:00,49.0,40.0,29.44,NNW,347,4.0,7.0,72,0.00,,,0.00,,2013-04-28 10:22:00,
2013-04-28 11:32:00,48.0,40.0,29.44,South,175,3.0,6.0,73,0.00,,,0.00,,2013-04-28 10:32:00,
2013-04-28 11:42:00,48.0,40.0,29.44,South,175,3.0,6.0,73,0.00,,,0.00,,2013-04-28 10:42:00,
2013-04-28 11:52:00,49.0,40.0,29.44,SW,226,5.0,6.0,72,0.00,,,0.00,,2013-04-28 10:52:00,
2013-04-28 12:02:00,49.0,40.0,29.44,WNW,290,4.0,6.0,70,0.00,,,0.00,,2013-04-28 11:02:00,
2013-04-28 12:11:00,49.0,40.0,29.44,WNW,290,4.0,6.0,70,0.00,,,0.00,,2013-04-28 11:11:00,
2013-04-28 12:21:00,49.0,39.0,29.44,West,264,4.0,10.0,69,0.00,,,0.00,,2013-04-28 11:21:00,
2013-04-28 12:32:00,47.0,39.0,29.44,NNW,345,2.0,10.0,75,0.05,,,0.05,,2013-04-28 11:32:00,
2013-04-28 12:42:00,47.0,39.0,29.44,NNW,345,2.0,10.0,75,0.05,,,0.05,,2013-04-28 11:42:00,
2013-04-28 12:52:00,45.0,38.0,29.44,West,270,6.0,10.0,76,0.05,,,0.05,,2013-04-28 11:52:00,
2013-04-28 13:01:00,46.0,40.0,29.44,WNW,294,2.0,7.0,78,0.05,,,0.05,,2013-04-28 12:01:00,
2013-04-28 13:11:00,46.0,40.0,29.44,WNW,294,2.0,7.0,78,0.05,,,0.05,,2013-04-28 12:11:00,
2013-04-28 13:21:00,47.0,40.0,29.44,West,259,4.0,5.0,76,0.05,,,0.05,,2013-04-28 12:21:00,
2013-04-28 13:32:00,47.0,39.0,29.44,NW,323,4.0,7.0,75,0.00,,,0.05,,2013-04-28 12:32:00,
2013-04-28 13:42:00,47.0,39.0,29.44,NW,323,4.0,7.0,75,0.00,,,0.05,,2013-04-28 12:42:00,
2013-04-28 13:51:00,46.0,39.0,29.44,WNW,283,4.0,7.0,76,0.00,,,0.05,,2013-04-28 12:51:00,
2013-04-28 14:02:00,48.0,40.0,29.41,WNW,291,4.0,7.0,73,0.00,,,0.05,,2013-04-28 13:02:00,
2013-04-28 14:11:00,48.0,40.0,29.41,WNW,291,4.0,7.0,73,0.00,,,0.05,,2013-04-28 13:11:00,
2013-04-28 14:21:00,48.0,39.0,29.41,WNW,288,5.0,10.0,72,0.00,,,0.05,,2013-04-28 13:21:00,
2013-04-28 14:31:00,48.0,38.0,29.41,ESE,106,3.0,6.0,68,0.00,,,0.05,,2013-04-28 13:31:00,
2013-04-28 14:42:00,48.0,38.0,29.41,ESE,106,3.0,6.0,68,0.00,,,0.05,,2013-04-28 13:42:00,
2013-04-28 14:52:00,46.0,37.0,29.41,ESE,106,2.0,3.0,72,0.00,,,0.05,,2013-04-28 13:52:00,
2013-04-28 15:01:00,47.0,37.0,29.41,SSW,208,4.0,7.0,69,0.00,,,0.05,,2013-04-28 14:01:00,
2013-04-28 15:11:00,47.0,37.0,29.41,SSW,208,4.0,7.0,69,0.00,,,0.05,,2013-04-28 14:11:00,
2013-04-28 15:21:00,47.0,37.0,29.41,ESE,102,5.0,6.0,69,0.00,,,0.05,,2013-04-28 14:21:00,
2013-04-28 15:31:00,47.0,38.0,29.41,West,268,2.0,6.0,72,0.00,,,0.05,,2013-04-28 14:31:00,
2013-04-28 15:41:00,47.0,38.0,29.41,West,268,2.0,6.0,72,0.00,,,0.05,,2013-04-28 14:41:00,
2013-04-28 15:52:00,46.0,38.0,29.41,SSW,206,2.0,4.0,74,0.00,,,0.05,,2013-04-28 14:52:00,
2013-04-28 16:01:00,46.0,38.0,29.38,NW,312,6.0,8.0,74,0.00,,,0.05,,2013-04-28 15:01:00,
2013-04-28 16:12:00,46.0,38.0,29.38,NW,312,6.0,8.0,74,0.00,,,0.05,,2013-04-28 15:12:00,
2013-04-28 16:21:00,46.0,38.0,29.38,NW,323,3.0,5.0,74,0.00,,,0.05,,2013-04-28 15:21:00,
2013-04-28 16:32:00,46.0,37.0,29.38,West,273,4.0,10.0,72,0.00,,,0.05,,2013-04-28 15:32:00,
2013-04-28 16:42:00,46.0,37.0,29.38,West,273,4.0,10.0,72,0.00,,,0.05,,2013-04-28 15:42:00,
2013-04-28 16:53:00,46.0,37.0,29.38,SW,231,4.0,11.0,72,0.00,,,0.05,,2013-04-28 15:53:00,
2013-04-28 17:03:00,46.0,36.0,29.38,WSW,255,3.0,7.0,68,0.00,,,0.05,,2013-04-28 16:03:00,
2013-04-28 17:13:00,46.0,36.0,29.38,WSW,255,3.0,7.0,68,0.00,,,0.05,,2013-04-28 16:13:00,
2013-04-28 17:23:00,46.0,36.0,29.38,West,280,4.0,7.0,67,0.00,,,0.05,,2013-04-28 16:23:00,
2013-04-28 17:32:00,47.0,37.0,29.35,WNW,295,5.0,8.0,67,0.00,,,0.05,,2013-04-28 16:32:00,
2013-04-28 17:42:00,47.0,37.0,29.35,WNW,295,5.0,8.0,67,0.00,,,0.05,,2013-04-28 16:42:00,
2013-04-28 17:52:00,48.0,36.0,29.35,SSE,159,2.0,3.0,64,0.00,,,0.05,,2013-04-28 16:52:00,
2013-04-28 18:02:00,48.0,34.0,29.35,WSW,253,6.0,8.0,59,0.04,,,0.09,,2013-04-28 17:02:00,
2013-04-28 18:12:00,48.0,34.0,29.35,WSW,253,6.0,8.0,59,0.04,,,0.09,,2013-04-28 17:12:00,
2013-04-28 18:21:00,47.0,35.0,29.35,WNW,299,7.0,12.0,62,0.04,,,0.09,,2013-04-28 17:21:00,
2013-04-28 18:32:00,46.0,35.0,29.35,East,98,4.0,9.0,64,0.04,,,0.09,,2013-04-28 17:32:00,
2013-04-28 18:42:00,46.0,35.0,29.35,East,98,4.0,9.0,64,0.04,,,0.09,,2013-04-28 17:42:00,
2013-04-28 18:51:00,45.0,32.0,29.35,NE,47,1.0,3.0,60,0.04,,,0.09,,2013-04-28 17:51:00,
2013-04-28 19:02:00,44.0,32.0,29.35,ENE,68,4.0,10.0,63,0.00,,,0.09,,2013-04-28 18:02:00,
2013-04-28 19:12:00,44.0,32.0,29.35,ENE,68,4.0,10.0,63,0.00,,,0.09,,2013-04-28 18:12:00,
2013-04-28 19:22:00,43.0,34.0,29.35,SW,226,5.0,7.0,69,0.00,,,0.09,,2013-04-28 18:22:00,
2013-04-28 19:32:00,43.0,33.0,29.35,WSW,256,4.0,6.0,68,0.00,,,0.09,,2013-04-28 18:32:00,
2013-04-28 19:42:00,43.0,33.0,29.35,WSW,256,4.0,6.0,68,0.00,,,0.09,,2013-04-28 18:42:00,
2013-04-28 19:52:00,43.0,34.0,29.35,West,279,4.0,8.0,69,0.00,,,0.09,,2013-04-28 18:52:00,
2013-04-28 20:01:00,42.0,34.0,29.35,WNW,282,3.0,7.0,72,0.00,,,0.09,,2013-04-28 19:01:00,
2013-04-28 20:11:00,42.0,34.0,29.35,WNW,282,3.0,7.0,72,0.00,,,0.09,,2013-04-28 19:11:00,
2013-04-28 20:21:00,42.0,34.0,29.35,WNW,295,5.0,8.0,72,0.00,,,0.09,,2013-04-28 19:21:00,
2013-04-28 20:31:00,42.0,33.0,29.35,West,261,4.0,7.0,70,0.00,,,0.09,,2013-04-28 19:31:00,
2013-04-28 20:41:00,42.0,33.0,29.35,West,261,4.0,7.0,70,0.00,,,0.09,,2013-04-28 19:41:00,
2013-04-28 20:52:00,41.0,32.0,29.35,WNW,285,3.0,4.0,71,0.00,,,0.09,,2013-04-28 19:52:00,
2013-04-28 21:01:00,41.0,33.0,29.38,WSW,244,5.0,8.0,74,0.00,,,0.09,,2013-04-28 20:01:00,
2013-04-28 21:11:00,41.0,33.0,29.38,WSW,244,5.0,8.0,74,0.00,,,0.09,,2013-04-28 20:11:00,
2013-04-28 21:21:00,40.0,33.0,29.38,SSW,204,1.0,4.0,76,0.00,,,0.09,,2013-04-28 20:21:00,
2013-04-28 21:32:00,39.0,33.0,29.35,WNW,295,3.0,3.0,78,0.00,,,0.09,,2013-04-28 20:32:00,
2013-04-28 21:41:00,39.0,33.0,29.35,WNW,295,3.0,3.0,78,0.00,,,0.09,,2013-04-28 20:41:00,
2013-04-28 21:51:00,40.0,34.0,29.35,NW,315,3.0,5.0,79,0.00,,,0.09,,2013-04-28 20:51:00,
2013-04-28 22:01:00,39.0,33.0,29.35,WNW,297,4.0,7.0,80,0.00,,,0.09,,2013-04-28 21:01:00,
2013-04-28 22:11:00,39.0,33.0,29.35,WNW,297,4.0,7.0,80,0.00,,,0.09,,2013-04-28 21:11:00,
2013-04-28 22:21:00,39.0,33.0,29.35,WSW,253,3.0,7.0,79,0.00,,,0.09,,2013-04-28 21:21:00,
2013-04-28 22:32:00,39.0,33.0,29.35,NW,323,1.0,2.0,80,0.00,,,0.09,,2013-04-28 21:32:00,
2013-04-28 22:42:00,39.0,33.0,29.35,NW,323,1.0,2.0,80,0.00,,,0.09,,2013-04-28 21:42:00,
2013-04-28 22:52:00,40.0,35.0,29.35,West,270,2.0,3.0,81,0.03,,,0.13,,2013-04-28 21:52:00,
2013-04-28 23:02:00,40.0,35.0,29.35,ENE,71,3.0,8.0,82,0.03,,,0.13,,2013-04-28 22:02:00,
2013-04-28 23:12:00,40.0,35.0,29.35,ENE,71,3.0,8.0,82,0.03,,,0.13,,2013-04-28 22:12:00,
2013-04-28 23:22:00,40.0,35.0,29.35,West,263,3.0,4.0,83,0.03,,,0.13,,2013-04-28 22:22:00,
2013-04-28 23:33:00,40.0,35.0,29.35,WSW,252,3.0,5.0,82,0.03,,,0.13,,2013-04-28 22:33:00,
2013-04-28 23:42:00,40.0,35.0,29.35,WSW,252,3.0,5.0,82,0.03,,,0.13,,2013-04-28 22:42:00,
2013-04-28 23:52:00,40.0,35.0,29.35,WNW,295,1.0,3.0,82,0.00,,,0.13,,2013-04-28 22:52:00,